Orbital Elements at Epoch 2459200.5 (2020-Dec-17.0) TDB
Reference: JPL 17 (heliocentric ecliptic J2000)
Element | Value | Uncertainty (1-sigma) | Units |
e | .1894096143999219 | 4.6647e-08 | |
a | 2.346671659633432 | 1.1181e-08 | au |
q | 1.902189485459039 | 1.138e-07 | au |
i | 3.64032932627924 | 4.1427e-06 | deg |
node | 206.3365022400071 | 8.8077e-05 | deg |
peri | 166.2010513833122 | 8.9241e-05 | deg |
M | 90.47998190880223 | 1.5931e-05 | deg |
tp | 2458870.490133919315 (2020-Jan-21.99013392) | 5.7046e-05 | TDB |
period | 1313.036864980727 3.59 | 9.3839e-06 2.569e-08 | d yr |
n | .274173566334167 | 1.9594e-09 | deg/d |
Q | 2.791153833807826 | 1.3298e-08 | au |
|
| | Orbit Determination Parameters
Additional Information
|